Voltar ao catálogo

STARLINK-5658

AtivoComunicaçõesVLEO
NORAD 55338·PAYLOAD·🇺🇸 United States

Lançado Jan 26, 2023 de Cape Canaveral Space Force Station

Loading…

Próximas Passagens (próximas 24 horas)

TLE

AtualizadoSource: CelesTrak SupGP

Época: Sep 14, 2026, 20:47 UTC

1 55338C 23013H   26257.86645833 -.00053253  00000+0 -19289-2 0  2575
2 55338  43.0029 315.3282 0001632 281.8067  26.7399 15.27603996    17

Acompanhe STARLINK-5658 em tempo real com AllMySat

Download on the App Store